Brainerd, MN

12:07 AM CST on December 11, 2017 (GMT -0600)
Brainerd-Crow Wing County Regional

Weather History for KBRD - June, 2013

Change the Weather History Date:

Wednesday, June 12, 2013

  Actual Average Record
Temperature  
Mean Temperature 66 °F -  
Max Temperature 77 °F 75 °F 96 °F (1956)
Min Temperature 57 °F 50 °F 38 °F (1963)
Cooling Degree Days 1    
Growing Degree Days 16 (Base 50)    
Moisture  
Dew Point 53 °F    
Average Humidity 64    
Maximum Humidity 90    
Minimum Humidity 40    
Precipitation  
Precipitation 0.02 in - - ()
Sea Level Pressure  
Sea Level Pressure 29.91 in    
Wind  
Wind Speed 4 mph (North)    
Max Wind Speed 18 mph    
Max Gust Speed 25 mph    
Visibility 10 miles    
Events Rain    
Averages and records for this station are not official NWS values.
T = Trace of Precipitation, MM = Missing Value Source: NWS Daily Summary

Daily Weather History Graph

Daily Weather History Graph

Search for Another Location

Airport or City:

Trip Planner

Search our weather history database for the weather conditions in past years. The results will help you decide how hot, cold, wet, or windy it might be!

Date:

Astronomy

Jun. 12, 2013 Rise Set
Actual Time 5:23 AM CDT 9:09 PM CDT
Civil Twilight 4:44 AM CDT 9:48 PM CDT
Nautical Twilight 3:52 AM CDT 10:41 PM CDT
Astronomical Twilight 2:38 AM CDT 11:55 PM CDT
Moon 9:14 AM CDT (6/12) 11:33 PM CDT (6/12)
Length of Visible Light 17h 03m
Length of Day
15h 45m
Waxing Crescent, 14% of the Moon is Illuminated
Jun 12
Waxing Crescent
Jun 16
First Quarter
Jun 23
Full
Jun 29
Last Quarter
Jul 8
New

Hourly Weather History & Observations

Time (CDT) Temp. Dew Point Humidity Pressure Visibility Wind Dir Wind Speed Gust Speed Precip Events Conditions
12:53 AM 60.1 °F 54.0 °F 80% 29.91 in 10.0 mi Calm Calm - N/A   Clear
1:53 AM 57.0 °F 53.1 °F 87% 29.92 in 10.0 mi Calm Calm - N/A   Clear
2:53 AM 57.9 °F 55.0 °F 90% 29.89 in 10.0 mi NNE 3.5 mph - N/A   Clear
3:53 AM 60.1 °F 55.0 °F 83% 29.88 in 10.0 mi Calm Calm - N/A   Mostly Cloudy
4:53 AM 59.0 °F 54.0 °F 83% 29.88 in 10.0 mi Calm Calm - N/A   Scattered Clouds
5:53 AM 57.9 °F 53.1 °F 84% 29.88 in 10.0 mi Calm Calm - N/A   Partly Cloudy
6:53 AM 62.1 °F 53.1 °F 72% 29.89 in 10.0 mi Calm Calm - N/A   Clear
7:53 AM 64.0 °F 53.1 °F 67% 29.89 in 10.0 mi North 4.6 mph - N/A   Clear
8:53 AM 64.0 °F 54.0 °F 70% 29.91 in 10.0 mi Calm Calm - N/A   Overcast
9:53 AM 70.0 °F 54.0 °F 57% 29.88 in 10.0 mi North 3.5 mph - N/A   Clear
10:53 AM 71.1 °F 55.0 °F 57% 29.88 in 10.0 mi NNE 4.6 mph - N/A   Clear
11:53 AM 71.1 °F 55.9 °F 59% 29.88 in 10.0 mi North 3.5 mph - N/A   Mostly Cloudy
12:53 PM 68.0 °F 59.0 °F 73% 29.90 in 8.0 mi WNW 5.8 mph - 0.02 in Rain Light Rain
1:53 PM 69.1 °F 59.0 °F 70% 29.88 in 10.0 mi NNW 5.8 mph - 0.00 in   Scattered Clouds
2:53 PM 73.9 °F 57.0 °F 55% 29.88 in 10.0 mi North 10.4 mph - N/A   Clear
3:53 PM 75.9 °F 54.0 °F 46% 29.88 in 10.0 mi North 12.7 mph - N/A   Clear
4:53 PM 75.0 °F 50.0 °F 41% 29.88 in 10.0 mi NNW 17.3 mph 25.3 mph N/A   Partly Cloudy
5:53 PM 75.9 °F 50.0 °F 40% 29.88 in 10.0 mi NNW 18.4 mph 24.2 mph N/A   Clear
6:53 PM 73.0 °F 50.0 °F 44% 29.90 in 10.0 mi North 15.0 mph 24.2 mph N/A   Clear
7:53 PM 71.1 °F 48.9 °F 45% 29.91 in 10.0 mi North 12.7 mph - N/A   Clear
8:53 PM 69.1 °F 46.9 °F 45% 29.94 in 10.0 mi North 8.1 mph - N/A   Clear
9:53 PM 64.9 °F 48.0 °F 54% 29.98 in 10.0 mi North 6.9 mph - N/A   Clear
10:53 PM 60.1 °F 48.9 °F 67% 30.01 in 10.0 mi North 5.8 mph - N/A   Clear
11:53 PM 60.1 °F 48.9 °F 67% 30.01 in 10.0 mi North 5.8 mph - N/A   Clear